Weather in Zell am See

Austria     47°19′24″N   12°47′48″E
temp.,
°C
wind,
m/s
gust,
m/s
humid.,
%
clouds,
%
prec.,
mm/h
press.,
hPa
HPBL,
m
8 august, mon
mon823:00+11ssw1196100 1.0 102116
02:00+10sse1192100 2.4 102127
05:00+10wnw1198100 0.1 102128
08:00+11nw119377 0.1 1022191
11:00+13nnw228691 0.4 1022653
14:00+15nne118034 1.9 1022731
17:00+15nne227365 0.8 1022943
20:00+12n228665 0.9 102375
9 august, tue
tue923:00+11sw118986 0.0 102533
02:00+9sw019334 0.0 102539
05:00+7ssw11950 0.0 102516
08:00+11nw01841 0.0 1025219
11:00+16nne22560 0.0 1024925
14:00+19nne22430 0.0 10221749
17:00+19n324619 0.0 10221721
20:00+12n12843 0.0 102428
10 august, wed
wed1023:00+9ssw11940 0.0 102614
02:00+8s11930 0.0 102610
05:00+7sse11940 0.0 102510
08:00+11ene11810 0.0 1024151
11:00+16nne21542 0.0 1022980
14:00+19nne324196 0.0 10211605
17:00+19ne214273 0.0 10211654
20:00+13nne118279 0.0 102210
11 august, thu
thu1123:00+10s22815 0.0 102316
02:00+10s34840 0.0 102354
05:00+9ssw228486 0.0 102225
08:00+13n00705 0.0 1021119
11:00+18n225289 0.0 1020863
14:00+21nnw333796 0.0 10192123
17:00+19nnw3344100 0.0 10181703
20:00+12nw118793 0.2 102011
12 august, fri
fri1223:00+9ssw11963 0.1 102114
02:00+9ssw11955 0.1 102010
05:00+8sw11963 0.0 101913
08:00+11nw118914 0.0 1019149
11:00+15n2251100 0.0 10181083
14:00+17n334012 0.1 10162051
17:00+16nne334422 0.8 10161936
20:00+9ese11847 1.4 101910